Location: Marcé
(47.5801°N, 0.3280°W)
Time: 23:14:03
(UTC+01:00)

Transit 2A - Pass Details

Date: 05 December 2021
Orbit: 591 x 967 km, 66.7° (Epoch: 23 January)

Event Time Altitude Azimuth Distance (km) Brightness Sun altitude
Rises 06:00:27 0° 316° (NW) 3,602 - -24.8°
Reaches altitude 10° 06:04:23 10° 341° (NNW) 2,696 - -24.2°
Exits shadow 06:05:08 12° 347° (NNW) 2,579 8.5 -24.1°
Maximum altitude 06:07:43 14° 12° (NNE) 2,400 8.6 -23.6°
Drops below altitude 10° 06:11:04 10° 44° (NE) 2,713 9.3 -23.1°
Sets 06:15:02 0° 68° (ENE) 3,641 10.5 -22.4°
